ALSAT 1

Satellite information

Favourite Embed

Satellite Type and Status

PAYLOADIN ORBIT

Key statistics

Satellite ALSAT 1 at a glance.

Uptime

8417

Days in orbit

Revolutions

≈ 14.8

Per day

Orbit

SSO

Sun Synchronous Orbit

Inclination

98.2

Latest

Satellite identification and parameters

Extended collection of information and parameters for ALSAT 1.

Object identification

Identified? True

Debris? False

Object name: ALSAT 1

International designator: 2002-054A

Object number (NORAD): 27559

Object ID (CCSDS): 27559

Country: ALGERIA (ALG)

Current information (Y/N): Y

RCS size: MEDIUM

Orbital parameters

Period: 97.444 minutes

Inclination: 98.2389 deg

SMA: 7014.514 km

Apoapsis: 650.618 km

Periapsis: 622.141 km

RAAN: 161.4942 deg

Eccentricy: 0.00202986

Argument of periapsis: 157.0786 deg

Mean anomaly: 203.1334 deg

Mean motion: 14.77768347 rev/day

Mean motion (dot): 0.00001785 rev/day2

B* drag term: 0.00025556238 1/REarth

Two-line elements (TLE)

Creation date: Dec. 12, 2025, 10:14 a.m.

Reference frame: TEME

Reference center: EARTH

Epoch: Dec. 12, 2025, 5:16 a.m. UTC

TLE line 0: 0 ALSAT 1

TLE line 1: 1 27559U 02054A 25346.21984333 .00001785 00000-0 25556-3 0 9999

TLE line 2: 2 27559 98.2389 161.4942 0020299 157.0786 203.1334 14.77768347235631

Live tracking on map

Real-time ground track for satellite ALSAT 1.

In-orbit conjunctions

There are no conjunctions computed for ALSAT 1, at the moment. Check back to stay up to date, as we update our databases every day.

Go to all conjunctions

Associated space launch

ALSAT 1 was an Algerian imaging minisatellite. The 90-kg satellite was the first part of an international Disaster Monitoring System (DMS) for alerting natural/man-made disasters.

ALSAT 1 was lifted into orbit during the mission ‘Kosmos-3M | AlSat-1’, on board a Kosmos-3M space rocket.

The launch took place on Nov. 28, 2002, 6:07 a.m. from 132/1 (132L).

For more information about the launch, click the button.

Launch to space Kosmos-3M | AlSat-1
Kosmos-3M | AlSat-1

Agency: N/A

Status: Launch Successful

Launch date: Nov. 28, 2002, 6:07 a.m. UTC

Rocket: Kosmos-3M

Launch pad: 132/1 (132L)

Location: Plesetsk Cosmodrome, Russian Federation

...

Latest news about this satellite

There are no fresh news available about this satellite. Check back as we update our databases every day.


Newsletter sign-up

Weekly statistics, charts and insights to help you stay on top of the space industry.